QPF
0.05 0.05 0.03 0.02 0.02 0.03 0.03 0.03 0.03 0.03 0.02 0.02 0.03 0.03 0.02 0.02 0.05 0.04 0.02 0.02 0.02 0.02 0.02 0.02 0.02 0.05 0.08 0.06 0.06 0.07 0.08 0.06 0.03 0.03 0.04 0.05 0.05 0.05
0.04 0.04 0.04 0.03 0.04 0.04 0.03 0.03 0.03 0.03 0.03 0.02 0.03 0.03 0.02 0.03 0.03 0.03 0.02 0.03 0.02 0.02 0.02 0.02 0.01 0.02 0.05 0.07 0.05 0.06 0.09 0.06 0.02 0.02 0.02 0.03 0.05 0.06
0.03 0.03 0.02 0.02 0.03 0.03 0.04 0.03 0.03 0.03 0.03 0.02 0.02 0.03 0.03 0.04 0.04 0.05 0.04 0.03 0.02 0.02 0.02 0.02 0.02 0.02 0.04 0.06 0.06 0.05 0.08 0.07 0.03 0.02 0.01 0.02 0.03 0.04
0.02 0.02 0.02 0.02 0.02 0.03 0.04 0.04 0.04 0.04 0.03 0.02 0.02 0.02 0.03 0.04 0.06 0.07 0.08 0.06 0.04 0.04 0.04 0.03 0.02 0.03 0.04 0.05 0.06 0.06 0.07 0.08 0.04 0.03 0.02 0.02 0.02 0.03
0.02 0.02 0.02 0.02 0.02 0.03 0.03 0.03 0.03 0.03 0.03 0.03 0.03 0.03 0.04 0.05 0.06 0.07 0.08 0.07 0.05 0.05 0.05 0.05 0.05 0.06 0.06 0.06 0.06 0.06 0.07 0.08 0.05 0.04 0.03 0.03 0.02 0.01
0.02 0.02 0.02 0.02 0.02 0.02 0.02 0.02 0.02 0.03 0.03 0.03 0.03 0.03 0.05 0.06 0.07 0.07 0.08 0.07 0.05 0.04 0.04 0.04 0.07 0.09 0.08 0.07 0.07 0.07 0.07 0.06 0.04 0.04 0.03 0.02 0.02 0.02
0.02 0.02 0.02 0.02 0.02 0.02 0.02 0.02 0.02 0.02 0.02 0.02 0.02 0.03 0.05 0.06 0.06 0.05 0.07 0.07 0.05 0.04 0.03 0.03 0.05 0.07 0.07 0.07 0.07 0.07 0.06 0.06 0.04 0.03 0.03 0.02 0.02 0.01
0.03 0.03 0.03 0.03 0.03 0.02 0.02 0.01 0.01 0.02 0.02 0.02 0.02 0.02 0.03 0.04 0.05 0.04 0.05 0.06 0.06 0.04 0.04 0.04 0.04 0.06 0.06 0.06 0.07 0.06 0.05 0.04 0.03 0.02 0.02 0.03 0.02 0.01
0.02 0.03 0.03 0.03 0.03 0.03 0.02 0.02 0.02 0.01 0.02 0.02 0.01 0.01 0.01 0.02 0.02 0.03 0.03 0.04 0.05 0.05 0.03 0.03 0.04 0.04 0.05 0.06 0.06 0.05 0.05 0.05 0.04 0.03 0.02 0.02 0.02 0.01
0.02 0.02 0.02 0.02 0.02 0.03 0.03 0.02 0.01 0.01 0.01 0.01 0.01 0.01 0.01 0.01 0.01 0.02 0.03 0.03 0.03 0.03 0.02 0.02 0.02 0.03 0.04 0.05 0.05 0.04 0.04 0.04 0.04 0.04 0.03 0.02 0.02 0.02
0.02 0.01 0.01 0.01 0.01 0.02 0.03 0.02 0.02 0.02 0.02 0.02 0.01 0.01 0.01 0.01 0.01 0.02 0.03 0.03 0.03 0.03 0.03 0.02 0.02 0.02 0.03 0.03 0.03 0.03 0.04 0.04 0.03 0.03 0.03 0.02 0.02 0.02
0.01 0.01 0.02 0.01 0.02 0.02 0.02 0.03 0.03 0.02 0.02 0.02 0.02 0.02 0.01 0.01 0.02 0.02 0.03 0.03 0.03 0.03 0.03 0.03 0.04 0.03 0.04 0.03 0.02 0.02 0.02 0.03 0.03 0.02 0.02 0.02 0.02 0.01
0.01 0.01 0.01 0.01 0.01 0.01 0.01 0.02 0.02 0.02 0.02 0.02 0.02 0.02 0.01 0.01 0.01 0.01 0.02 0.02 0.02 0.02 0.02 0.03 0.03 0.04 0.04 0.04 0.03 0.02 0.02 0.02 0.03 0.03 0.02 0.02 0.02 0.01
0.00 0.00 0.00 0.01 0.01 0.01 0.00 0.01 0.02 0.02 0.02 0.01 0.01 0.01 0.01 0.01 0.01 0.01 0.01 0.02 0.02 0.01 0.02 0.02 0.02 0.02 0.03 0.03 0.03 0.03 0.03 0.02 0.03 0.03 0.03 0.03 0.02 0.02
0.00 0.00 0.00 0.01 0.01 0.01 0.01 0.02 0.02 0.01 0.02 0.02 0.01 0.01 0.01 0.01 0.01 0.01 0.01 0.02 0.01 0.01 0.01 0.01 0.01 0.02 0.03 0.04 0.04 0.03 0.03 0.03 0.02 0.02 0.03 0.03 0.03 0.02
0.00 0.00 0.00 0.01 0.01 0.01 0.01 0.01 0.01 0.02 0.02 0.02 0.02 0.02 0.02 0.01 0.01 0.01 0.01 0.01 0.01 0.01 0.01 0.01 0.02 0.03 0.03 0.03 0.03 0.03 0.02 0.03 0.02 0.02 0.04 0.04 0.03 0.03
0.00 0.00 0.00 0.00 0.01 0.01 0.01 0.01 0.01 0.01 0.01 0.02 0.02 0.02 0.02 0.02 0.01 0.01 0.00 0.00 0.00 0.01 0.01 0.01 0.02 0.03 0.04 0.04 0.03 0.03 0.02 0.02 0.02 0.03 0.03 0.04 0.03 0.02
0.00 0.01 0.01 0.01 0.01 0.01 0.01 0.01 0.02 0.02 0.01 0.01 0.01 0.01 0.02 0.02 0.02 0.01 0.01 0.00 0.00 0.01 0.02 0.02 0.02 0.02 0.03 0.04 0.05 0.05 0.03 0.02 0.02 0.03 0.02 0.02 0.02 0.01
0.01 0.01 0.01 0.02 0.03 0.03 0.02 0.02 0.02 0.02 0.01 0.01 0.01 0.01 0.01 0.02 0.02 0.02 0.02 0.01 0.01 0.01 0.02 0.03 0.03 0.03 0.03 0.04 0.04 0.06 0.05 0.04 0.03 0.04 0.04 0.02 0.01 0.02
0.02 0.02 0.01 0.02 0.03 0.04 0.03 0.02 0.02 0.01 0.01 0.01 0.02 0.02 0.01 0.01 0.01 0.01 0.01 0.02 0.02 0.02 0.03 0.04 0.04 0.03 0.03 0.04 0.05 0.07 0.07 0.05 0.03 0.03 0.04 0.02 0.01 0.02
0.03 0.02 0.01 0.01 0.02 0.03 0.02 0.02 0.01 0.01 0.01 0.01 0.01 0.01 0.01 0.01 0.01 0.01 0.01 0.01 0.02 0.03 0.04 0.05 0.05 0.04 0.03 0.03 0.04 0.05 0.06 0.04 0.02 0.02 0.04 0.03 0.02 0.02
0.04 0.03 0.01 0.01 0.02 0.01 0.01 0.02 0.01 0.01 0.01 0.01 0.01 0.01 0.01 0.02 0.02 0.02 0.02 0.03 0.03 0.03 0.04 0.04 0.04 0.03 0.03 0.03 0.04 0.04 0.03 0.03 0.03 0.03 0.03 0.03 0.03 0.02
0.03 0.03 0.02 0.02 0.02 0.02 0.02 0.01 0.01 0.01 0.01 0.01 0.01 0.01 0.02 0.02 0.03 0.03 0.03 0.03 0.04 0.04 0.04 0.04 0.03 0.03 0.03 0.02 0.02 0.03 0.03 0.04 0.04 0.04 0.04 0.04 0.04 0.03
MSLP
1010.58 1010.76 1010.92 1011.00 1010.96 1010.78 1010.46 1010.03 1009.53 1009.01 1008.50 1008.05 1007.65 1007.32 1007.02 1006.76 1006.50 1006.25 1006.02 1005.82 1005.69 1005.64 1005.70 1005.86 1006.11 1006.43 1006.78 1007.14 1007.47 1007.76 1008.02 1008.26 1008.50 1008.79 1009.14 1009.56 1010.05 1010.60
1010.67 1010.79 1010.89 1010.91 1010.82 1010.61 1010.27 1009.84 1009.35 1008.84 1008.35 1007.89 1007.48 1007.12 1006.78 1006.45 1006.12 1005.80 1005.49 1005.22 1005.04 1004.95 1004.98 1005.14 1005.41 1005.75 1006.14 1006.53 1006.90 1007.23 1007.52 1007.78 1008.06 1008.36 1008.72 1009.14 1009.64 1010.19
1010.84 1010.88 1010.90 1010.87 1010.74 1010.51 1010.18 1009.76 1009.30 1008.82 1008.35 1007.91 1007.49 1007.10 1006.70 1006.31 1005.90 1005.49 1005.09 1004.75 1004.50 1004.35 1004.34 1004.46 1004.71 1005.04 1005.43 1005.83 1006.20 1006.55 1006.86 1007.15 1007.44 1007.75 1008.12 1008.56 1009.06 1009.60
1011.10 1011.06 1011.01 1010.91 1010.76 1010.51 1010.19 1009.81 1009.38 1008.94 1008.49 1008.06 1007.63 1007.20 1006.75 1006.29 1005.80 1005.30 1004.83 1004.40 1004.07 1003.86 1003.78 1003.86 1004.05 1004.34 1004.69 1005.06 1005.43 1005.77 1006.08 1006.38 1006.68 1007.01 1007.40 1007.84 1008.34 1008.89
1011.43 1011.31 1011.18 1011.04 1010.86 1010.61 1010.31 1009.95 1009.56 1009.14 1008.71 1008.28 1007.83 1007.36 1006.86 1006.33 1005.78 1005.21 1004.66 1004.16 1003.76 1003.48 1003.34 1003.33 1003.46 1003.68 1003.97 1004.30 1004.62 1004.93 1005.24 1005.53 1005.84 1006.18 1006.58 1007.04 1007.54 1008.10
1011.80 1011.60 1011.42 1011.23 1011.02 1010.78 1010.48 1010.14 1009.77 1009.36 1008.94 1008.48 1008.01 1007.50 1006.96 1006.37 1005.76 1005.14 1004.54 1003.99 1003.53 1003.19 1002.98 1002.91 1002.96 1003.10 1003.30 1003.56 1003.82 1004.09 1004.36 1004.65 1004.96 1005.32 1005.73 1006.20 1006.72 1007.28
1012.15 1011.89 1011.66 1011.43 1011.20 1010.94 1010.65 1010.32 1009.94 1009.54 1009.09 1008.62 1008.11 1007.56 1006.98 1006.36 1005.72 1005.07 1004.44 1003.87 1003.38 1003.00 1002.74 1002.59 1002.56 1002.60 1002.72 1002.88 1003.07 1003.28 1003.51 1003.78 1004.08 1004.45 1004.88 1005.37 1005.91 1006.48
1012.44 1012.13 1011.86 1011.60 1011.35 1011.07 1010.77 1010.42 1010.04 1009.61 1009.14 1008.64 1008.10 1007.53 1006.92 1006.28 1005.64 1004.99 1004.37 1003.80 1003.31 1002.91 1002.60 1002.39 1002.28 1002.23 1002.25 1002.31 1002.41 1002.54 1002.72 1002.95 1003.24 1003.60 1004.04 1004.54 1005.10 1005.70
1012.64 1012.29 1011.98 1011.70 1011.42 1011.13 1010.81 1010.44 1010.04 1009.59 1009.10 1008.57 1008.00 1007.42 1006.80 1006.18 1005.55 1004.93 1004.34 1003.80 1003.32 1002.92 1002.58 1002.32 1002.13 1002.00 1001.91 1001.87 1001.87 1001.92 1002.02 1002.20 1002.46 1002.80 1003.24 1003.74 1004.31 1004.92
1012.75 1012.38 1012.04 1011.74 1011.44 1011.12 1010.78 1010.40 1009.97 1009.50 1008.99 1008.45 1007.88 1007.29 1006.70 1006.10 1005.51 1004.94 1004.40 1003.90 1003.44 1003.04 1002.70 1002.40 1002.14 1001.92 1001.74 1001.59 1001.49 1001.44 1001.46 1001.57 1001.78 1002.08 1002.48 1002.98 1003.54 1004.14
1012.80 1012.42 1012.07 1011.74 1011.42 1011.09 1010.73 1010.33 1009.89 1009.41 1008.90 1008.36 1007.80 1007.23 1006.67 1006.11 1005.57 1005.05 1004.56 1004.10 1003.68 1003.29 1002.93 1002.59 1002.28 1001.99 1001.73 1001.49 1001.29 1001.15 1001.09 1001.11 1001.24 1001.48 1001.83 1002.28 1002.80 1003.38
1012.87 1012.47 1012.11 1011.76 1011.42 1011.08 1010.70 1010.30 1009.86 1009.38 1008.88 1008.36 1007.82 1007.29 1006.76 1006.24 1005.74 1005.27 1004.82 1004.39 1003.99 1003.61 1003.24 1002.88 1002.53 1002.19 1001.86 1001.55 1001.28 1001.06 1000.92 1000.86 1000.90 1001.06 1001.32 1001.70 1002.16 1002.68
1013.00 1012.60 1012.22 1011.85 1011.50 1011.14 1010.76 1010.35 1009.92 1009.46 1008.98 1008.48 1007.97 1007.47 1006.97 1006.48 1006.01 1005.56 1005.13 1004.72 1004.32 1003.93 1003.56 1003.19 1002.82 1002.46 1002.10 1001.76 1001.44 1001.17 1000.96 1000.82 1000.78 1000.84 1001.01 1001.28 1001.64 1002.08
1013.24 1012.82 1012.42 1012.05 1011.68 1011.30 1010.92 1010.52 1010.09 1009.64 1009.18 1008.70 1008.22 1007.74 1007.25 1006.77 1006.30 1005.84 1005.40 1004.98 1004.57 1004.17 1003.79 1003.42 1003.06 1002.70 1002.36 1002.02 1001.70 1001.41 1001.17 1000.98 1000.87 1000.84 1000.90 1001.06 1001.30 1001.62
1013.58 1013.16 1012.75 1012.36 1011.97 1011.58 1011.19 1010.78 1010.36 1009.92 1009.47 1009.00 1008.52 1008.03 1007.53 1007.03 1006.53 1006.03 1005.55 1005.08 1004.64 1004.23 1003.84 1003.49 1003.15 1002.84 1002.54 1002.25 1001.98 1001.72 1001.48 1001.27 1001.11 1001.01 1000.97 1001.00 1001.12 1001.30
1014.01 1013.59 1013.18 1012.77 1012.36 1011.96 1011.54 1011.12 1010.69 1010.24 1009.78 1009.30 1008.80 1008.27 1007.73 1007.17 1006.60 1006.04 1005.49 1004.96 1004.47 1004.03 1003.64 1003.30 1003.01 1002.76 1002.55 1002.34 1002.15 1001.96 1001.78 1001.58 1001.41 1001.26 1001.14 1001.06 1001.05 1001.11
1014.49 1014.08 1013.66 1013.25 1012.82 1012.39 1011.96 1011.50 1011.04 1010.57 1010.07 1009.55 1008.99 1008.41 1007.79 1007.15 1006.49 1005.83 1005.19 1004.59 1004.03 1003.56 1003.16 1002.84 1002.60 1002.43 1002.31 1002.22 1002.14 1002.04 1001.93 1001.79 1001.63 1001.46 1001.29 1001.13 1001.02 1000.96
1014.98 1014.60 1014.19 1013.76 1013.32 1012.86 1012.39 1011.90 1011.39 1010.86 1010.31 1009.72 1009.10 1008.43 1007.72 1006.98 1006.21 1005.44 1004.70 1004.00 1003.38 1002.85 1002.44 1002.13 1001.94 1001.84 1001.81 1001.82 1001.85 1001.87 1001.84 1001.78 1001.66 1001.50 1001.30 1001.11 1000.92 1000.77
1015.46 1015.10 1014.71 1014.28 1013.83 1013.34 1012.82 1012.28 1011.72 1011.13 1010.50 1009.84 1009.13 1008.37 1007.56 1006.72 1005.84 1004.96 1004.12 1003.32 1002.63 1002.04 1001.59 1001.28 1001.11 1001.05 1001.09 1001.19 1001.31 1001.42 1001.49 1001.50 1001.43 1001.30 1001.12 1000.90 1000.68 1000.49
1015.92 1015.60 1015.23 1014.80 1014.33 1013.81 1013.25 1012.66 1012.04 1011.38 1010.68 1009.94 1009.15 1008.31 1007.41 1006.47 1005.50 1004.53 1003.59 1002.71 1001.93 1001.28 1000.78 1000.44 1000.26 1000.21 1000.28 1000.42 1000.60 1000.77 1000.90 1000.97 1000.96 1000.87 1000.72 1000.52 1000.30 1000.09
1016.36 1016.08 1015.73 1015.30 1014.82 1014.27 1013.68 1013.04 1012.36 1011.64 1010.89 1010.08 1009.22 1008.32 1007.35 1006.34 1005.31 1004.27 1003.26 1002.31 1001.46 1000.74 1000.18 999.79 999.56 999.48 999.53 999.67 999.85 1000.04 1000.21 1000.32 1000.35 1000.31 1000.20 1000.03 999.84 999.66
1016.80 1016.54 1016.20 1015.79 1015.29 1014.72 1014.10 1013.43 1012.71 1011.95 1011.15 1010.30 1009.41 1008.46 1007.46 1006.42 1005.36 1004.28 1003.23 1002.24 1001.34 1000.56 999.94 999.48 999.18 999.03 999.02 999.10 999.26 999.43 999.59 999.71 999.77 999.77 999.70 999.59 999.45 999.30
1017.22 1016.98 1016.65 1016.24 1015.74 1015.16 1014.52 1013.82 1013.08 1012.30 1011.49 1010.63 1009.73 1008.78 1007.79 1006.76 1005.70 1004.63 1003.58 1002.57 1001.64 1000.83 1000.14 999.61 999.23 999.00 998.90 998.91 999.00 999.12 999.25 999.36 999.43 999.45 999.42 999.36 999.28 999.19
Thickness
5632 5629 5626 5624 5621 5619 5616 5613 5608 5606 5608 5610 5610 5612 5611 5611 5611 5610 5611 5613 5614 5615 5615 5616 5617 5618 5619 5619 5619 5621 5623 5625 5627 5629 5631 5634 5636 5639
5626 5622 5619 5617 5614 5611 5608 5605 5601 5598 5597 5599 5599 5600 5600 5600 5601 5601 5602 5603 5605 5606 5607 5608 5609 5611 5612 5612 5613 5615 5616 5618 5620 5622 5623 5626 5628 5631
5620 5616 5613 5610 5606 5603 5600 5596 5592 5589 5586 5588 5589 5590 5589 5589 5590 5591 5592 5593 5595 5597 5598 5599 5601 5602 5603 5604 5606 5608 5610 5611 5612 5614 5615 5617 5620 5623
5614 5610 5606 5603 5599 5595 5591 5587 5584 5581 5577 5576 5578 5578 5579 5579 5580 5581 5582 5584 5585 5587 5588 5590 5591 5593 5594 5596 5598 5599 5601 5603 5605 5606 5608 5610 5612 5615
5608 5603 5599 5595 5591 5587 5583 5578 5575 5573 5569 5566 5566 5567 5567 5569 5569 5570 5571 5572 5575 5577 5579 5581 5583 5584 5586 5588 5589 5591 5593 5595 5597 5599 5600 5602 5605 5608
5602 5597 5593 5589 5584 5580 5576 5571 5568 5564 5560 5557 5555 5555 5555 5557 5557 5557 5558 5560 5563 5567 5569 5572 5574 5576 5578 5580 5582 5584 5586 5587 5589 5591 5593 5595 5597 5600
5595 5590 5587 5583 5580 5575 5570 5565 5560 5555 5552 5548 5546 5544 5544 5544 5544 5545 5546 5548 5552 5556 5558 5561 5564 5567 5570 5572 5574 5576 5578 5579 5581 5583 5585 5587 5589 5592
5587 5583 5580 5576 5572 5568 5564 5561 5556 5550 5545 5541 5537 5535 5535 5535 5535 5536 5535 5537 5539 5545 5547 5550 5554 5557 5560 5564 5567 5570 5572 5573 5574 5576 5578 5580 5582 5584
5581 5576 5575 5570 5565 5561 5557 5555 5551 5547 5543 5537 5532 5530 5529 5529 5527 5527 5527 5528 5530 5535 5537 5540 5544 5547 5552 5555 5559 5562 5564 5566 5567 5569 5570 5572 5574 5576
5574 5570 5566 5562 5559 5554 5550 5547 5543 5541 5538 5534 5530 5528 5527 5525 5523 5522 5521 5522 5525 5527 5529 5530 5534 5538 5543 5546 5550 5553 5556 5558 5560 5561 5563 5564 5566 5568
5569 5565 5561 5556 5554 5550 5545 5540 5537 5534 5533 5530 5528 5525 5523 5521 5519 5516 5515 5514 5516 5519 5522 5522 5526 5529 5533 5537 5541 5544 5547 5549 5552 5554 5555 5557 5558 5559
5564 5561 5557 5553 5549 5545 5539 5534 5531 5529 5527 5525 5523 5521 5518 5516 5515 5512 5511 5509 5509 5512 5516 5516 5518 5520 5523 5528 5531 5534 5537 5539 5542 5545 5546 5548 5549 5550
5559 5555 5552 5549 5546 5542 5537 5532 5529 5526 5522 5519 5517 5515 5513 5511 5510 5509 5508 5507 5505 5506 5510 5510 5511 5512 5513 5517 5521 5524 5527 5529 5532 5535 5537 5539 5541 5542
5555 5551 5548 5545 5542 5538 5534 5531 5527 5523 5518 5514 5512 5510 5508 5507 5506 5506 5505 5504 5504 5504 5506 5506 5506 5506 5507 5509 5512 5515 5518 5521 5523 5526 5528 5530 5532 5535
5553 5549 5546 5542 5539 5535 5532 5528 5524 5519 5514 5510 5508 5506 5505 5503 5502 5502 5501 5501 5501 5502 5503 5503 5502 5502 5502 5503 5505 5507 5509 5512 5515 5518 5520 5522 5524 5526
5551 5547 5543 5539 5535 5532 5528 5524 5520 5516 5512 5508 5505 5504 5502 5500 5499 5498 5497 5496 5495 5496 5499 5499 5499 5499 5498 5499 5499 5501 5502 5504 5507 5510 5512 5514 5517 5519
5549 5543 5538 5534 5530 5527 5524 5520 5517 5513 5509 5507 5503 5501 5499 5498 5497 5495 5494 5493 5492 5492 5493 5494 5495 5495 5495 5494 5494 5496 5497 5498 5501 5504 5505 5508 5510 5513
5547 5540 5535 5530 5527 5523 5520 5517 5513 5510 5507 5505 5502 5499 5498 5496 5494 5493 5492 5490 5489 5489 5489 5489 5490 5490 5489 5490 5490 5490 5491 5492 5495 5498 5500 5501 5504 5507
5545 5539 5533 5529 5525 5521 5517 5513 5510 5507 5504 5502 5499 5497 5496 5494 5492 5491 5489 5488 5487 5486 5486 5485 5484 5484 5483 5484 5485 5487 5487 5488 5489 5492 5494 5496 5499 5502
5545 5539 5533 5528 5524 5519 5515 5511 5508 5505 5502 5499 5497 5495 5493 5491 5490 5489 5488 5486 5485 5484 5483 5482 5481 5481 5480 5479 5480 5482 5484 5484 5485 5487 5488 5490 5493 5496
5545 5539 5534 5528 5523 5518 5514 5510 5506 5502 5499 5497 5494 5493 5491 5489 5488 5487 5486 5485 5483 5482 5481 5480 5480 5481 5479 5478 5476 5478 5480 5481 5482 5483 5484 5485 5487 5489
5545 5540 5534 5528 5523 5517 5513 5508 5504 5501 5498 5495 5493 5491 5490 5489 5487 5486 5485 5484 5482 5481 5480 5480 5480 5478 5477 5476 5475 5475 5476 5478 5480 5481 5482 5484 5484 5486
5545 5539 5534 5528 5522 5517 5512 5507 5504 5500 5497 5494 5492 5490 5489 5488 5487 5485 5484 5483 5482 5480 5479 5478 5478 5476 5475 5474 5473 5473 5474 5474 5475 5476 5478 5481 5483 5486